GFSCGP_850_thetae_111.txt.gz
Theta_e
309 311 311 313 314 315 317 315 316 316 315 316 317 318 319 318 322 323 322 321 322 326 321 319 319 318 318 319 321 320 320 320 321 322 327 336 339 344 342 344 343 340 340 339
310 311 312 312 314 315 316 316 317 317 316 316 317 318 319 319 319 319 320 320 320 324 319 318 318 318 318 318 319 319 320 320 320 321 322 324 328 339 343 341 342 339 335 329
314 314 313 314 316 315 316 317 317 317 317 317 318 317 318 317 317 316 316 318 318 318 317 316 317 318 318 318 319 319 320 320 320 320 321 327 339 344 345 340 329 323 320 318
316 316 316 316 317 317 318 317 317 317 318 319 317 320 320 319 317 317 317 315 314 314 315 316 317 318 318 319 320 320 321 322 324 327 329 337 340 338 326 320 319 317 314 314
315 316 316 316 317 317 318 317 317 318 319 318 318 319 320 318 319 319 319 320 318 318 318 318 318 317 317 318 319 322 327 333 336 339 331 324 321 320 319 317 315 314 315 315
315 315 317 318 317 317 316 316 316 316 318 320 320 319 319 319 319 321 321 318 317 318 319 320 320 319 318 319 319 324 327 326 323 320 320 320 319 317 316 315 315 315 315 315
316 316 317 316 318 318 316 318 319 319 319 319 316 318 319 318 320 320 320 318 317 317 318 318 318 318 319 321 324 324 321 320 320 320 319 318 318 317 316 316 315 315 315 315
319 316 317 319 320 320 320 318 320 320 320 319 318 319 322 320 317 316 317 317 316 315 315 317 317 318 320 321 320 320 320 320 320 320 320 319 318 318 318 318 317 317 316 316
319 317 319 320 320 320 320 321 317 320 319 320 320 321 322 320 319 318 317 316 315 315 315 315 315 315 315 316 318 319 320 320 319 318 317 317 317 317 318 319 318 318 317 316
319 321 320 321 320 320 321 318 322 322 323 321 321 323 324 322 321 319 318 316 315 314 314 314 314 314 314 314 314 315 315 315 315 314 314 314 314 315 315 316 316 316 317 317
317 320 321 320 320 322 321 323 322 321 322 323 321 321 320 322 320 319 317 315 314 313 312 312 311 312 312 312 313 313 313 312 312 312 312 312 313 313 313 314 314 315 316 317
317 320 322 320 318 317 319 321 323 328 326 323 324 323 317 318 317 317 316 314 312 312 311 310 310 310 310 310 310 310 309 309 308 307 308 309 309 309 309 309 309 310 312 312
322 321 323 322 320 319 321 321 321 321 323 325 324 323 316 316 316 315 315 314 312 311 311 310 309 308 308 307 306 306 306 305 305 305 305 305 306 306 306 307 307 307 307 308
320 320 321 324 320 320 322 322 322 322 325 322 322 322 319 317 317 315 314 313 312 311 310 309 309 308 307 305 304 303 303 303 304 304 305 306 307 308 309 310 311 311 310 309
318 321 319 318 318 317 319 320 320 321 320 321 320 322 321 320 318 315 313 312 312 311 310 308 308 307 306 304 302 302 302 303 304 305 306 307 308 309 310 311 310 309 308 307
314 319 317 316 314 314 316 316 317 317 317 318 318 318 316 314 313 312 312 311 311 309 308 307 306 305 304 304 302 302 303 304 305 305 306 306 305 305 306 305 304 303 303 302
316 317 316 315 313 313 313 313 314 314 314 315 316 315 315 314 313 312 311 310 309 307 306 306 305 304 303 302 302 302 303 302 302 301 302 302 301 301 301 301 301 301 300 300
315 314 313 314 313 313 313 316 315 315 315 315 314 313 312 311 310 310 309 308 307 306 305 304 303 302 302 301 300 301 300 300 300 300 300 299 299 299 299 299 299 299 299 299
312 313 313 315 314 312 316 317 317 317 317 313 314 312 311 310 310 309 307 305 305 304 303 302 301 301 300 299 298 298 298 298 299 299 298 299 299 298 298 298 299 299 298 298
311 311 314 312 315 315 317 315 314 315 319 312 311 311 310 309 313 311 306 304 303 301 300 299 298 298 297 297 296 296 297 297 297 299 300 300 300 300 299 299 299 298 298 298
314 314 314 313 314 313 312 314 313 318 316 311 309 309 308 309 307 305 303 301 300 299 298 297 296 296 295 295 295 295 296 299 300 300 300 300 299 299 299 299 298 298 298 299
312 313 313 313 315 316 313 314 315 313 309 308 306 305 305 304 303 301 300 299 298 297 296 295 295 295 294 295 295 297 300 301 301 300 300 300 300 299 299 299 299 299 300 300
316 315 316 314 315 314 312 311 309 310 308 305 304 302 301 300 300 299 298 297 296 295 294 294 293 293 294 296 297 299 301 300 300 298 299 299 299 300 299 300 301 300 300 301
315 313 315 314 314 314 307 305 305 305 303 301 300 299 299 299 298 297 296 295 294 294 293 292 292 293 295 296 298 299 299 298 299 299 300 300 300 299 300 300 301 301 301 301
312 313 314 313 314 309 308 305 303 301 300 299 298 298 298 297 297 295 295 294 293 292 292 292 292 293 294 296 299 298 299 299 300 300 300 299 300 301 301 302 302 302 302 303
310 313 315 314 313 312 306 302 301 300 299 297 297 298 297 296 295 294 293 292 292 292 292 291 291 293 294 296 297 298 299 300 300 301 301 300 300 301 302 302 303 305 304 305

GFSCGP_850_thetae_114.txt.gz
Theta_e
311 314 315 315 315 317 318 318 317 317 317 317 317 318 320 320 322 324 327 329 328 331 330 330 328 329 323 320 318 320 322 323 324 328 340 349 350 351 352 353 351 348 348 350
314 315 315 315 315 317 318 319 318 318 318 319 317 318 319 321 321 322 325 327 328 330 330 329 326 325 321 318 318 319 321 321 322 326 330 346 349 350 351 351 350 348 348 347
315 315 315 315 315 317 318 319 319 319 320 318 318 319 320 321 321 322 324 323 328 329 330 325 323 323 321 319 319 319 319 321 323 330 339 337 347 345 348 350 350 350 348 344
313 315 315 314 316 317 319 318 319 319 319 320 320 322 322 322 322 323 322 321 324 328 326 322 320 320 319 318 317 324 326 327 327 327 334 339 343 343 344 346 345 338 329 321
314 317 318 315 317 319 319 319 319 319 320 320 321 321 323 322 322 322 322 320 320 324 322 318 318 318 318 323 331 331 328 328 331 331 338 340 341 340 335 330 324 320 318 314
318 317 318 319 319 319 319 319 319 319 320 320 320 321 322 323 323 323 324 323 322 320 320 320 318 321 324 320 325 325 327 332 335 336 333 328 329 328 326 324 324 323 323 322
317 317 318 318 319 319 319 320 321 320 320 320 320 321 320 325 325 325 325 323 322 321 322 322 323 324 325 326 326 326 331 328 327 324 321 320 320 319 317 317 325 324 323 324
318 317 317 318 319 321 321 322 321 320 320 319 321 321 321 325 323 323 322 321 321 320 320 319 320 321 321 322 324 325 326 322 320 320 320 320 319 319 318 322 320 322 324 324
320 318 317 317 319 320 322 322 322 322 322 322 321 322 325 324 324 323 322 322 321 320 320 319 319 319 319 319 320 320 320 320 320 320 320 320 319 318 318 318 317 319 321 324
320 320 318 317 319 320 322 321 322 322 323 321 322 324 322 325 325 324 324 322 320 319 318 317 316 316 315 315 315 316 316 317 317 317 317 317 316 315 315 315 315 315 315 316
320 322 323 322 321 320 321 322 323 324 323 324 322 325 326 325 325 324 323 321 320 319 317 316 315 315 314 314 314 314 313 314 314 314 314 314 314 313 313 313 312 312 313 314
320 321 326 322 322 321 322 323 322 329 325 324 325 325 324 325 324 323 321 320 319 318 317 316 315 314 314 313 312 312 311 311 311 310 310 309 309 308 308 307 307 307 307 307
322 324 326 326 323 322 322 322 323 325 326 326 325 324 323 322 323 321 320 319 318 317 316 315 315 314 313 312 311 310 310 310 308 308 308 308 307 307 307 307 308 309 310 311
321 323 324 326 325 324 324 324 322 323 325 324 324 324 323 322 322 321 319 319 318 317 316 315 314 313 312 311 310 309 308 308 308 308 308 308 309 309 309 309 310 310 310 311
324 326 325 323 320 322 323 323 323 322 321 322 321 322 324 323 322 321 319 318 317 316 315 314 313 312 311 309 308 308 307 307 307 307 307 308 308 308 308 309 309 309 308 309
322 325 324 323 320 321 321 321 321 321 321 321 320 320 320 320 320 318 317 316 316 315 313 312 311 310 309 308 307 306 306 306 306 306 306 307 307 307 307 307 307 306 306 306
323 323 324 323 318 317 316 316 317 318 318 319 320 319 319 318 317 317 316 315 314 312 311 310 309 308 307 307 306 305 305 305 305 305 306 306 306 305 304 303 303 302 302 302
322 322 320 319 317 315 318 317 315 315 316 316 318 318 318 317 315 314 313 313 311 310 309 308 307 306 305 304 304 304 303 304 304 304 305 304 302 301 301 301 301 301 301 300
319 320 320 320 317 316 318 318 318 320 319 318 318 317 315 315 315 313 310 309 308 307 306 305 304 303 303 303 302 302 302 302 303 303 302 301 300 300 300 300 301 300 300 299
317 317 318 318 318 315 320 318 317 317 320 317 317 316 316 315 318 313 310 308 306 305 304 303 302 302 302 302 300 300 300 301 301 300 299 300 301 301 301 300 300 300 300 299
316 317 318 316 319 317 317 316 316 320 320 315 314 313 312 314 311 308 306 305 304 303 302 301 300 300 300 298 298 299 299 299 301 298 300 301 300 300 299 300 300 300 301 300
315 315 316 316 318 319 316 316 318 317 314 313 311 309 308 307 305 304 304 303 302 300 299 298 298 298 297 298 297 296 299 299 297 298 300 299 299 300 301 301 302 303 302 301
317 317 318 317 319 316 315 315 315 313 312 309 308 305 304 304 304 303 302 300 298 297 296 296 296 296 297 295 296 297 297 296 300 302 301 298 301 302 302 302 302 302 303 302
316 316 318 318 316 314 311 310 310 309 307 305 303 303 302 302 301 300 298 297 296 295 295 295 295 294 293 294 294 294 295 300 302 302 302 300 301 302 302 302 304 305 303 304
315 316 317 316 311 310 310 308 305 304 303 302 301 301 300 300 299 297 296 295 295 294 294 292 292 292 292 292 294 296 298 299 300 302 302 300 301 303 302 304 304 304 305 304
315 315 316 316 314 313 309 305 303 303 302 301 301 300 299 299 298 296 295 293 292 292 291 291 291 291 292 293 294 294 296 298 300 301 302 302 300 301 303 304 305 306 306 306

GFSCGP_850_thetae_117.txt.gz
Theta_e
313 316 316 316 317 318 318 319 320 319 319 318 318 318 319 319 320 321 324 327 328 330 332 331 328 324 329 328 325 318 318 334 352 353 352 351 350 350 349 349 350 349 354 352
315 316 317 317 317 317 318 319 321 320 320 320 319 319 319 319 320 320 323 325 325 328 328 331 331 331 329 328 326 321 319 331 346 350 349 344 344 344 345 345 350 348 350 350
316 316 317 317 318 318 318 319 320 320 320 321 320 320 320 319 319 319 321 321 321 324 327 330 331 329 327 327 325 321 320 321 324 329 347 349 349 346 347 346 349 351 351 352
316 318 317 317 318 318 318 319 319 320 321 320 321 320 320 320 321 321 321 321 323 327 327 330 332 329 329 324 326 324 320 319 321 323 328 346 347 345 343 343 344 349 350 352
315 316 317 317 317 317 318 320 320 320 320 321 322 321 323 322 321 322 323 324 325 324 326 331 331 330 323 325 325 323 321 319 319 321 338 342 341 342 344 344 345 348 343 341
316 316 317 318 317 318 319 320 321 321 320 321 321 323 324 324 325 324 324 324 323 323 330 331 325 325 323 323 322 327 340 340 341 339 340 346 344 341 337 336 333 332 331 331
317 317 319 319 319 318 320 321 321 321 321 320 321 323 326 327 326 326 326 326 325 324 324 325 325 323 326 326 329 333 339 342 343 341 340 339 337 334 331 332 329 327 326 325
320 320 319 319 319 321 321 321 321 323 321 320 320 322 326 325 323 326 326 326 325 325 325 326 327 328 329 330 330 333 334 331 332 332 331 329 323 328 328 329 328 329 329 328
322 321 319 319 319 321 322 321 322 322 325 325 323 325 326 326 327 327 326 326 326 325 325 325 325 325 326 326 326 326 325 325 325 325 325 321 320 320 320 321 319 318 321 323
322 323 319 319 319 320 321 323 323 324 329 330 326 325 325 327 327 327 328 326 325 324 323 322 321 321 321 321 321 321 321 321 320 319 318 319 318 318 317 316 316 316 316 316
322 323 322 319 319 319 320 323 325 326 325 327 328 328 327 327 327 328 327 325 324 322 321 321 320 319 319 319 319 318 317 317 317 317 315 315 315 315 315 315 315 315 314 314
322 324 325 321 319 319 321 323 325 333 329 327 329 330 325 326 327 327 326 324 323 321 320 320 319 318 318 317 317 316 315 315 315 314 314 313 313 313 312 311 310 309 310 310
325 324 329 326 326 324 323 323 324 327 329 326 329 330 326 328 327 325 324 322 321 321 320 319 319 318 317 316 315 314 314 314 313 313 313 313 313 313 313 313 313 313 314 314
324 324 327 329 325 326 324 323 323 325 326 328 327 326 326 325 325 324 323 322 321 321 320 319 318 317 316 315 314 313 313 312 311 311 311 311 312 312 312 312 313 313 313 313
324 326 326 326 325 325 325 323 323 322 321 322 322 326 325 325 323 323 322 322 321 320 319 318 317 316 315 314 313 312 311 310 310 310 310 310 310 311 311 312 312 311 310 310
325 326 325 325 323 324 325 324 325 324 323 323 321 325 325 323 323 323 322 321 320 319 317 316 315 314 313 312 311 311 310 309 309 309 309 309 310 310 310 309 308 307 307 306
328 326 326 325 324 322 323 324 323 322 321 321 321 321 322 322 322 321 319 318 318 317 315 315 314 312 311 310 310 308 308 308 308 308 309 309 309 308 306 306 305 305 304 304
325 326 324 324 323 324 321 319 318 319 319 318 320 320 320 319 319 318 317 316 316 314 314 312 311 310 309 308 307 307 307 306 307 308 308 307 306 305 304 304 303 303 303 303
324 324 325 324 321 320 320 318 316 318 320 319 319 318 318 318 317 316 314 313 312 311 310 309 308 307 307 307 307 306 305 306 306 306 305 305 304 304 303 303 302 302 302 303
321 322 322 321 321 319 321 320 320 320 321 319 318 317 317 317 318 316 313 311 309 308 307 306 306 305 305 306 304 303 303 303 304 303 302 302 304 304 303 303 303 303 303 304
320 321 322 320 321 322 320 318 318 322 322 317 316 315 315 316 313 311 309 308 307 306 305 304 303 303 303 301 301 300 301 301 300 300 301 303 303 304 303 303 304 304 305 304
319 319 319 320 320 323 317 317 320 318 315 315 313 312 311 310 309 307 307 306 305 303 302 301 300 300 299 299 298 298 298 300 299 300 300 302 303 302 303 304 305 304 305 307
318 318 320 319 322 319 318 317 315 314 313 312 310 308 307 307 305 305 304 303 302 300 298 298 297 297 297 296 294 296 297 297 298 299 300 301 301 301 303 305 304 304 305 307
317 316 319 320 317 316 315 314 313 311 309 308 306 305 304 304 303 302 301 299 298 297 296 295 295 294 293 293 294 294 294 297 296 300 300 301 300 303 304 305 304 304 306 305
317 317 317 316 315 314 313 311 309 308 306 305 304 303 303 302 301 300 299 297 296 294 293 293 292 292 292 292 292 293 293 294 297 301 303 302 300 302 304 304 305 306 307 307
317 318 319 319 314 315 312 309 307 306 304 304 303 303 302 301 300 298 297 295 293 292 292 291 291 291 290 290 291 292 295 297 299 302 302 301 299 301 303 304 307 309 309 310

GFSCGP_850_thetae_123.txt.gz
Theta_e
320 319 319 318 316 315 316 315 314 315 316 315 314 314 315 316 318 317 318 319 319 320 319 334 335 335 331 331 329 325 321 322 329 337 335 334 334 336 340 351 348 349 351 349
320 320 319 318 318 315 315 315 315 316 317 315 315 315 316 315 316 317 318 318 319 319 320 326 334 334 333 332 330 327 323 321 339 341 339 335 336 334 335 348 345 348 351 349
320 320 320 317 316 316 315 315 316 316 318 320 319 317 318 318 318 319 319 319 319 319 319 321 331 333 333 332 331 329 324 322 325 343 342 340 340 334 330 343 349 349 342 345
320 319 319 316 315 315 315 316 317 317 317 317 319 317 318 319 318 318 318 319 319 319 319 319 323 332 333 332 331 331 327 323 325 338 336 341 341 335 342 344 347 344 346 343
319 320 320 315 315 315 316 317 316 317 316 319 317 316 316 319 322 322 324 325 323 319 320 320 323 328 332 329 330 329 326 323 321 321 322 322 325 333 329 344 342 341 341 338
320 319 317 316 316 316 316 316 316 315 314 316 317 317 316 317 320 325 326 324 325 324 325 325 327 329 329 328 330 328 326 324 322 322 332 335 333 330 328 337 342 342 340 340
320 319 317 317 316 316 315 314 314 316 316 317 317 318 317 324 326 327 326 324 325 325 325 325 328 332 330 330 329 328 327 327 331 332 332 333 336 329 325 335 336 338 335 336
321 320 317 318 316 315 315 314 314 317 319 319 320 319 318 326 326 326 325 325 327 326 327 327 328 329 330 330 330 333 333 334 334 334 334 338 338 335 335 334 332 333 334 334
320 319 319 318 317 316 316 316 315 316 323 322 321 327 326 325 324 323 325 327 328 330 329 328 327 326 331 329 329 329 331 332 332 333 331 334 336 335 332 331 331 330 329 327
323 325 321 318 316 316 316 315 316 315 323 323 322 326 330 325 323 322 324 326 327 328 328 329 329 329 328 329 329 326 326 330 328 327 328 327 325 326 326 324 325 325 325 318
324 323 325 323 322 316 315 315 316 319 323 321 324 332 327 330 329 324 325 325 325 325 325 324 324 324 325 325 324 322 320 320 319 318 316 316 316 316 315 315 315 314 314 315
323 323 324 323 322 322 317 317 320 323 327 328 324 327 324 325 324 324 326 323 323 323 323 322 321 320 320 319 318 317 316 316 316 315 315 315 315 314 313 312 311 310 309 309
322 324 325 325 323 322 317 318 320 324 325 328 328 327 325 325 323 323 325 325 322 320 320 319 318 317 317 316 316 315 315 314 313 313 313 313 312 311 310 310 310 310 311 311
322 323 325 324 325 322 319 319 322 322 325 327 328 328 327 324 326 324 324 326 321 320 319 318 317 317 316 315 314 314 313 312 312 312 312 311 311 311 311 311 311 311 311 310
322 326 325 326 326 325 322 319 325 325 324 325 326 327 325 322 323 323 323 323 320 319 318 317 316 315 315 314 313 313 312 311 311 310 309 310 310 311 311 311 310 309 309 308
323 326 322 326 324 325 326 324 326 326 325 325 322 326 322 322 322 323 323 319 318 317 316 315 314 314 313 312 312 310 310 309 309 308 309 309 310 310 310 308 308 307 306 304
322 326 323 324 324 324 327 326 326 325 326 324 328 325 323 323 320 319 320 319 315 314 312 312 311 310 310 310 309 309 309 309 307 308 308 308 308 308 307 306 306 306 304 304
325 324 320 324 326 329 324 323 325 325 325 325 325 322 319 316 315 314 313 312 311 310 309 309 309 308 308 308 308 308 308 307 305 306 306 306 306 306 305 305 305 304 304 305
320 325 325 325 324 324 324 323 323 322 323 322 320 317 315 314 313 312 311 310 309 308 307 306 306 306 306 306 306 306 305 303 303 303 304 304 304 303 304 304 303 304 305 305
320 320 322 323 324 326 323 322 321 319 321 317 317 317 316 316 313 309 308 308 307 306 305 304 304 303 303 303 302 301 300 300 301 301 302 302 302 302 303 303 304 305 305 305
317 320 323 323 322 323 321 321 320 321 321 315 313 313 312 311 309 307 306 305 304 303 302 301 301 300 299 298 298 298 298 298 299 300 301 301 302 302 302 304 304 305 305 306
318 321 323 321 321 323 320 319 320 316 312 312 309 308 306 306 305 304 303 302 301 299 298 297 296 296 296 296 296 297 296 297 298 299 300 301 302 301 303 304 305 305 307 309
323 322 322 321 321 316 315 315 313 310 308 308 306 305 305 303 302 301 299 298 297 296 295 294 294 294 293 294 294 295 295 297 298 299 300 301 301 302 304 304 305 307 309 309
320 318 319 318 315 313 311 310 308 307 306 305 305 303 302 301 300 298 296 295 294 293 292 292 291 291 291 292 293 293 295 296 298 299 300 300 301 302 304 305 305 307 309 309
319 317 316 315 312 310 309 307 306 305 305 304 303 302 301 299 297 296 295 293 292 291 291 290 290 291 291 292 292 293 293 295 296 298 299 301 302 302 304 304 304 307 308 308
316 315 315 314 312 310 309 307 306 305 304 303 302 300 299 297 296 295 293 293 292 291 292 292 291 291 291 292 292 292 293 293 294 297 299 300 302 302 303 303 306 307 307 307

GFSCGP_850_thetae_129.txt.gz
Theta_e
315 316 316 315 313 315 316 314 313 311 312 311 309 309 309 310 313 314 316 316 317 319 323 339 337 338 341 341 337 336 337 341 345 345 344 344 344 342 340 338 335 340 337 338
317 318 316 316 316 317 317 316 312 313 313 311 310 310 310 310 311 314 316 316 316 317 320 331 336 336 337 337 340 342 343 342 343 345 345 345 345 342 343 343 341 340 335 340
320 320 319 318 318 318 317 315 312 313 313 313 313 312 312 312 311 314 315 316 317 316 317 326 332 331 330 335 334 334 336 334 331 332 338 344 343 343 341 343 340 340 340 339
320 319 320 318 319 317 318 316 315 314 313 312 312 312 311 312 313 315 313 315 317 316 315 320 327 329 330 331 331 328 328 332 335 336 337 337 338 340 337 336 337 337 336 335
320 320 321 320 319 318 318 318 316 315 312 312 313 313 312 313 317 320 320 319 318 318 316 316 321 322 325 331 327 322 325 328 328 335 339 341 337 336 334 336 337 334 335 335
319 319 319 319 319 318 317 316 315 313 310 311 311 312 312 313 316 320 320 321 323 321 318 315 317 324 328 330 326 323 324 327 328 334 337 337 337 336 335 336 333 336 333 332
320 321 319 319 319 319 318 314 312 311 310 312 310 312 313 322 322 320 319 324 327 327 325 323 320 328 330 329 326 326 328 332 338 337 336 335 331 329 330 331 333 333 333 333
324 323 321 319 319 318 318 312 309 313 312 312 312 313 323 322 323 325 326 327 328 328 329 329 329 329 329 331 331 332 335 332 332 334 332 332 332 331 328 326 327 330 331 331
324 324 320 320 318 319 319 316 311 312 315 313 324 325 322 324 323 323 324 326 326 328 330 330 331 332 334 336 335 335 334 333 332 331 329 328 328 329 328 326 328 328 323 323
322 320 319 320 319 319 316 313 312 311 318 317 326 328 326 326 325 323 323 324 325 327 329 328 328 328 328 327 327 326 326 325 324 324 323 324 324 324 323 322 324 324 320 314
321 320 321 319 321 320 319 313 313 313 317 319 325 329 325 325 323 323 320 322 325 327 326 325 323 321 320 319 318 318 317 316 316 317 317 317 317 314 313 314 313 311 311 311
321 319 321 321 319 318 317 312 312 316 324 320 320 326 324 323 323 321 321 321 320 320 320 320 317 315 314 314 314 314 314 313 313 313 313 313 313 312 311 310 310 310 310 310
321 324 320 321 320 319 320 318 313 316 320 323 320 326 322 323 322 322 319 319 316 315 315 313 314 314 314 314 314 314 313 312 312 312 312 311 310 310 310 310 310 310 310 309
321 321 317 319 321 318 320 317 317 318 320 323 321 326 326 324 322 323 319 316 313 313 313 313 313 313 312 313 313 313 313 313 313 312 311 310 310 310 310 310 309 308 307 307
322 321 321 325 326 324 321 319 320 318 319 321 324 325 324 322 321 322 315 313 312 311 311 311 311 311 311 312 312 313 313 311 310 309 308 308 308 309 309 308 308 306 307 307
317 324 322 324 324 324 326 320 320 322 323 324 325 326 323 321 322 316 314 312 310 309 310 310 311 311 312 312 312 311 310 309 309 308 307 306 307 307 307 306 306 306 306 305
317 321 319 324 324 325 324 325 324 324 324 324 324 323 322 320 316 312 310 308 307 307 307 308 308 308 308 309 308 307 307 307 307 306 305 305 304 304 304 305 305 305 305 305
317 321 320 324 324 325 323 322 325 326 324 322 323 323 322 309 307 306 306 307 306 306 306 306 306 306 306 306 305 305 304 304 303 302 302 302 303 304 305 305 304 304 305 308
317 317 323 324 324 325 325 325 325 325 325 323 323 312 308 306 305 302 303 304 304 304 304 303 303 303 303 303 302 302 301 301 301 301 301 302 303 302 303 303 304 305 307 307
318 318 321 321 325 329 324 323 320 319 320 317 312 310 310 314 313 302 300 301 301 301 301 302 302 300 300 300 300 300 300 300 300 300 301 301 301 301 302 304 304 306 308 308
321 322 319 320 324 324 320 320 319 323 320 313 311 312 310 304 302 299 299 300 300 300 300 298 298 298 299 299 300 300 299 299 299 300 300 300 301 301 303 304 305 307 308 308
318 320 321 319 322 325 320 320 319 313 308 307 305 305 300 299 300 300 299 299 299 299 299 300 300 299 298 298 299 300 299 299 300 302 300 300 301 302 303 304 306 308 308 307
319 318 316 313 312 310 309 307 307 308 305 304 303 301 304 301 299 298 297 297 297 297 297 297 298 298 298 298 298 297 297 298 299 300 300 300 301 301 303 304 306 307 308 307
315 312 309 308 306 306 304 303 303 305 304 303 305 304 304 300 298 296 296 296 296 297 297 297 297 296 295 295 295 295 296 297 297 299 298 299 300 301 303 304 306 307 307 307
313 309 306 306 305 304 302 302 303 302 302 300 299 299 299 299 297 297 296 296 295 294 294 293 293 293 293 293 294 294 294 295 296 297 298 299 300 301 303 304 305 306 305 305
312 309 311 309 306 304 302 300 299 299 298 298 298 296 295 296 295 293 292 291 291 291 291 291 291 292 293 293 293 294 293 294 295 296 297 299 300 300 302 303 304 304 304 304

GFSCGP_850_thetae_132.txt.gz
Theta_e
310 318 318 317 317 314 311 312 312 312 312 311 308 308 308 309 310 311 314 315 316 326 318 322 335 342 345 344 342 341 342 341 340 342 344 342 340 340 341 342 342 341 341 340
313 318 316 315 316 315 312 314 313 313 311 310 311 310 309 309 309 311 313 314 315 316 319 322 330 337 337 338 340 341 339 338 337 340 343 343 343 342 343 343 342 340 338 336
313 316 316 315 315 314 314 314 312 313 312 312 312 311 312 312 310 312 313 315 315 316 317 319 327 335 337 336 337 337 339 337 338 341 344 345 344 343 344 343 341 343 340 339
312 313 316 316 316 314 314 315 313 313 312 312 311 310 311 312 311 311 312 314 315 315 316 317 322 329 332 331 336 337 337 340 341 343 343 342 340 340 340 341 340 338 336 336
317 316 317 317 317 316 315 316 315 316 311 311 311 310 310 312 314 313 315 319 318 315 314 316 317 320 326 332 334 336 337 338 340 341 340 339 339 340 340 338 335 336 335 334
315 317 317 318 317 316 316 316 316 311 308 310 309 310 310 312 321 318 318 324 324 322 318 315 315 321 329 332 335 334 332 331 330 332 334 337 337 337 336 335 334 335 334 335
318 319 317 319 318 317 316 316 312 311 310 312 309 310 310 322 321 320 320 323 327 327 322 317 314 318 327 330 331 330 328 326 328 329 333 337 337 336 334 333 333 332 333 333
319 320 320 319 319 319 316 314 310 313 311 310 310 311 315 323 323 323 322 323 326 327 327 324 322 325 328 328 329 329 328 331 337 337 335 333 331 330 328 327 326 326 326 325
322 320 318 318 317 317 318 316 309 309 311 311 315 324 324 323 323 324 322 322 322 326 327 329 329 330 330 331 334 333 335 333 331 331 330 330 329 329 328 326 324 324 325 325
320 324 319 320 318 318 317 314 314 311 315 316 326 325 326 327 327 325 323 322 322 323 325 328 329 330 330 330 330 330 330 329 327 326 325 325 325 325 324 323 323 323 324 323
321 321 321 320 322 321 317 316 313 310 314 320 325 326 322 324 323 324 322 322 321 322 322 321 322 323 324 323 323 323 321 321 320 319 317 317 317 316 314 313 313 312 313 313
320 320 320 319 319 319 317 314 310 312 320 317 318 328 323 321 320 321 320 316 316 318 318 318 317 316 316 315 314 315 315 314 313 313 313 313 312 311 311 310 310 310 310 310
321 322 323 323 320 320 319 316 311 313 317 320 320 325 322 322 323 320 315 313 312 312 312 312 312 312 312 312 312 312 312 312 312 312 312 311 310 310 310 310 310 310 309 308
320 319 316 320 320 319 319 317 314 317 317 320 320 327 327 324 321 317 313 311 310 310 311 311 311 311 311 311 312 311 311 310 310 310 309 309 309 309 309 308 308 307 306 305
321 321 322 320 320 319 316 316 314 316 317 318 324 326 326 323 320 314 311 310 310 309 309 309 310 310 310 311 310 310 309 309 308 308 307 307 307 307 306 306 305 305 305 307
318 321 321 323 323 322 319 317 316 318 323 324 324 327 322 320 314 313 311 310 308 308 308 308 309 309 309 308 308 308 308 308 307 307 306 305 305 305 304 304 304 306 306 305
319 320 317 323 324 324 324 325 321 323 323 323 325 324 322 316 314 312 310 309 307 306 306 307 307 307 307 307 307 307 307 306 305 304 303 303 302 302 303 304 305 305 305 307
318 320 317 322 321 322 321 321 323 324 323 323 323 322 315 309 305 305 306 307 305 305 305 305 306 306 306 306 305 305 303 302 302 302 302 302 302 303 304 304 304 305 307 307
315 317 322 322 321 325 326 324 324 323 324 322 314 307 305 304 305 300 303 304 304 304 303 304 304 304 303 302 301 300 300 301 301 302 302 302 302 302 303 304 305 306 307 307
317 318 321 322 326 327 324 322 320 321 324 312 308 307 307 311 311 301 299 301 301 301 301 301 301 300 300 300 300 300 301 301 301 301 300 300 300 301 303 304 305 307 307 307
318 316 320 320 322 323 322 320 316 321 320 311 309 309 310 305 302 298 299 299 300 300 299 299 298 299 300 300 301 300 298 299 301 301 301 300 300 301 303 303 305 308 307 307
317 319 320 318 325 325 312 317 319 313 311 308 306 305 298 298 299 298 298 298 297 297 296 296 297 298 298 298 297 297 299 299 300 301 302 301 301 302 303 304 305 308 307 307
316 313 312 312 312 306 306 307 308 307 305 303 303 299 302 299 298 296 296 295 295 295 296 296 297 296 296 295 296 297 298 299 299 300 301 300 301 302 303 304 305 307 307 307
310 309 309 308 305 304 302 302 304 308 304 301 301 301 301 298 296 295 294 294 294 294 295 295 295 294 294 295 295 295 296 298 299 299 299 299 300 301 302 303 305 306 306 306
308 307 305 305 304 303 300 299 301 301 302 303 300 299 298 297 295 296 294 293 293 293 293 294 294 294 294 294 295 295 295 297 298 298 298 299 300 301 302 303 304 305 306 306
308 307 311 310 304 301 299 298 298 300 298 298 297 296 295 296 293 292 292 292 291 292 292 292 293 293 294 294 294 294 294 295 295 296 297 298 299 300 300 301 302 303 304 304

GFSCGP_850_thetae_135.txt.gz
Theta_e
311 316 319 318 317 315 318 316 317 316 314 313 314 313 314 315 314 315 316 316 316 324 321 329 338 345 345 347 348 346 344 343 346 348 345 342 340 338 336 338 336 339 342 341
312 316 316 316 316 317 315 316 316 316 316 315 315 314 315 316 316 316 316 316 316 316 318 318 320 331 343 347 346 346 344 342 342 343 345 344 342 341 339 338 341 342 342 342
312 312 314 317 317 317 318 315 316 316 314 315 315 316 316 316 315 315 315 316 316 316 316 317 318 319 329 336 339 340 341 342 340 339 341 343 344 343 342 340 341 343 343 342
312 312 314 317 318 318 319 317 315 315 315 316 315 316 317 317 317 316 316 316 316 315 315 316 318 319 326 335 338 338 340 341 340 339 338 341 343 343 343 342 341 340 337 336
313 313 313 317 316 317 316 316 316 317 316 316 315 316 317 316 317 317 320 320 320 317 314 315 316 318 326 334 338 338 337 338 339 338 340 342 342 339 341 339 337 335 335 334
312 313 313 316 316 316 315 316 316 316 317 318 317 316 316 318 322 323 324 326 325 326 319 314 315 315 323 333 337 337 336 336 336 337 339 340 338 336 336 336 335 335 335 332
313 315 314 316 317 316 316 317 318 317 317 317 317 317 317 325 326 325 325 325 325 325 326 322 318 318 323 328 332 334 333 332 331 331 332 332 335 336 336 334 332 329 328 328
316 315 316 318 318 319 318 318 318 318 318 317 314 317 318 326 325 324 324 324 324 324 324 324 323 325 328 330 331 331 330 329 333 336 336 334 331 329 328 327 326 326 325 324
315 315 313 317 319 319 319 319 316 316 317 317 315 324 326 327 326 324 323 324 323 321 323 324 327 328 330 331 332 333 333 334 332 331 330 329 329 327 327 326 325 324 323 323
315 317 314 319 319 318 319 318 315 317 318 317 319 324 321 330 327 324 324 323 322 321 321 321 322 326 329 330 330 329 329 328 327 326 326 326 325 324 323 322 321 320 318 316
316 318 317 320 321 321 319 319 317 316 318 320 323 323 326 330 327 326 324 322 320 318 318 317 320 322 323 323 323 322 322 321 321 320 319 318 317 315 314 313 312 312 311 311
317 320 323 323 321 320 319 318 318 318 321 326 322 330 327 328 325 324 320 317 316 315 314 316 316 316 315 315 315 314 314 315 314 314 313 313 312 311 311 311 311 310 310 310
320 321 324 324 320 320 320 319 318 319 321 326 326 330 325 326 323 318 316 314 313 312 312 311 311 311 311 312 312 312 312 312 313 312 312 312 311 311 311 310 309 308 307 306
320 321 321 325 323 320 321 319 318 318 321 324 329 328 329 326 320 316 314 313 312 311 310 310 309 309 310 311 311 311 311 311 311 310 310 309 309 308 307 306 305 305 304 305
321 323 321 321 322 321 321 319 318 317 319 320 328 329 328 324 318 314 312 311 311 310 309 308 307 308 309 309 309 310 310 310 309 308 307 307 306 305 305 304 303 304 305 307
319 324 323 323 322 321 322 319 316 316 324 326 327 329 326 319 314 314 312 311 310 308 307 306 306 306 308 308 308 308 308 307 306 306 305 304 303 303 303 303 305 306 307 307
318 323 325 326 322 321 321 319 318 320 324 327 330 325 319 316 315 313 312 310 308 307 305 304 305 307 307 307 306 306 306 305 304 302 302 302 302 302 303 305 305 305 307 307
321 323 324 325 322 324 323 324 321 324 325 325 326 322 319 316 313 311 310 308 306 303 302 303 305 305 305 305 304 304 303 302 302 302 302 302 302 303 304 304 305 307 307 307
320 322 325 327 326 326 326 324 324 324 327 325 322 314 308 306 305 302 302 302 301 302 304 304 305 305 303 301 301 301 302 302 302 303 302 302 302 302 303 304 306 307 307 307
319 320 324 325 327 324 326 323 320 323 324 314 310 308 309 313 316 303 299 301 302 302 302 303 303 301 300 300 301 301 303 303 302 302 301 301 301 302 303 304 305 307 307 307
319 320 324 324 325 325 314 315 317 325 324 311 310 311 314 314 310 300 298 298 300 300 301 300 300 300 300 299 300 302 301 301 302 302 303 302 301 302 303 304 305 307 307 307
319 321 321 323 325 328 307 317 323 316 310 311 311 306 302 300 299 297 296 299 299 298 299 299 298 298 298 299 300 300 301 301 301 301 300 301 301 302 303 304 305 307 306 306
316 312 314 312 310 305 306 309 311 310 307 305 303 301 300 298 296 296 296 296 296 297 297 294 294 294 296 297 297 297 297 298 298 298 299 300 301 302 303 304 305 306 306 306
310 308 309 309 302 303 303 303 303 303 302 300 299 298 298 299 296 295 294 293 293 292 292 292 293 295 295 294 295 295 295 297 297 299 300 300 301 301 302 304 304 306 306 305
308 307 305 304 302 301 298 298 298 298 301 302 301 301 298 295 294 294 292 292 291 291 292 293 294 294 294 294 294 295 296 297 297 298 299 299 301 301 302 303 304 305 305 305
301 307 312 308 301 299 297 297 297 300 300 299 300 296 294 294 293 292 291 291 291 291 291 292 293 293 294 294 294 294 295 295 295 296 297 298 299 300 301 301 302 304 303 303

GFSCGP_850_thetae_138.txt.gz
Theta_e
311 316 319 319 319 318 320 320 319 319 319 318 319 319 320 319 318 318 318 318 319 319 321 327 341 349 351 352 350 346 346 344 343 344 346 350 351 349 349 347 346 343 344 334
313 315 316 318 319 319 319 320 320 319 318 318 319 320 319 319 319 318 319 319 319 320 323 335 344 350 350 351 350 349 347 344 344 349 350 351 350 349 348 348 341 338 339 341
315 315 314 317 319 319 320 320 321 321 319 317 319 319 319 319 319 318 318 319 320 320 321 324 336 343 349 351 351 349 348 347 345 350 347 345 345 343 344 345 345 341 341 343
315 315 315 315 318 319 321 319 319 319 319 320 319 322 321 321 320 320 319 319 319 320 320 321 323 334 342 348 350 350 349 348 347 342 343 340 347 348 346 346 345 343 340 338
315 315 315 316 317 319 320 319 318 318 319 320 319 320 323 321 321 320 320 319 319 320 320 320 321 328 337 343 345 346 345 344 343 340 343 343 345 344 342 341 340 338 335 335
314 313 315 316 317 318 319 319 319 318 319 319 320 320 322 321 321 320 320 321 324 325 324 322 322 333 338 339 342 343 342 341 339 341 340 342 344 342 341 339 337 335 335 334
311 313 315 316 317 318 318 320 322 320 321 322 321 320 322 324 325 321 324 327 328 328 325 324 329 333 337 339 341 340 336 336 336 337 337 338 337 336 336 336 334 331 329 326
313 313 314 316 317 319 320 321 321 323 323 322 321 321 323 329 329 328 329 328 328 329 329 330 331 332 333 336 337 336 334 335 333 332 332 335 335 332 330 328 327 326 325 324
313 312 313 316 318 318 320 320 320 322 322 322 320 324 329 330 328 328 328 327 325 325 327 330 331 332 334 334 335 334 333 331 334 334 331 329 328 327 327 326 326 325 324 322
316 316 314 318 318 318 319 319 320 322 323 323 320 323 323 331 329 327 327 325 324 325 327 327 329 329 330 330 331 330 330 329 328 327 327 326 325 323 322 321 320 319 316 314
316 319 316 315 319 320 319 320 320 321 322 323 322 323 326 330 329 327 325 324 325 326 326 326 327 327 327 327 326 324 323 323 322 321 319 318 317 316 316 315 313 312 311 311
316 320 319 316 319 318 320 321 321 321 322 322 324 333 329 331 327 325 323 323 323 322 321 321 321 320 320 321 320 320 319 318 318 317 315 314 313 312 312 311 311 311 310 308
316 323 324 321 322 321 321 321 320 320 321 325 325 334 327 326 323 321 319 318 318 317 316 316 317 317 317 317 317 316 316 315 315 315 314 312 312 311 310 309 308 306 305 305
316 322 321 325 324 323 321 321 320 321 323 324 324 331 328 323 320 318 316 316 315 315 315 316 316 315 315 314 314 313 313 313 313 313 313 311 309 307 306 306 305 305 305 307
320 324 320 323 323 324 323 320 320 320 321 324 330 332 327 322 320 318 316 316 316 316 316 315 314 313 313 312 312 311 311 311 310 310 309 307 306 306 306 305 305 305 307 310
320 324 322 325 322 321 321 320 320 319 321 326 329 332 324 320 317 316 316 317 317 316 314 313 312 311 311 310 309 309 308 309 308 307 306 305 306 307 307 306 308 310 310 311
319 325 326 325 323 323 323 321 319 320 324 327 331 327 320 317 317 316 317 316 315 314 312 311 309 308 308 307 307 307 307 306 305 305 305 305 305 307 307 307 309 310 311 312
320 325 327 326 324 330 323 320 320 319 326 328 327 323 320 317 315 315 315 314 312 311 309 308 307 306 305 305 306 305 304 304 304 304 305 305 306 306 306 308 309 310 312 312
324 326 327 328 328 324 322 320 320 324 328 327 325 320 316 314 312 311 312 311 309 307 304 302 303 303 304 303 303 303 303 303 304 304 304 304 304 305 306 307 308 310 310 311
324 325 326 328 327 331 327 324 323 324 328 325 324 320 315 313 316 307 305 304 303 301 299 301 303 301 302 302 302 302 303 303 303 303 303 303 303 304 305 306 308 309 309 310
324 326 327 327 328 325 313 316 320 326 325 321 318 314 314 320 315 304 302 300 299 300 299 301 300 301 302 303 301 301 301 301 301 301 301 302 303 304 305 305 307 307 307 309
317 322 322 326 326 329 307 320 325 320 317 316 314 315 310 306 305 302 300 298 298 298 298 300 301 301 302 302 299 299 300 299 300 301 301 301 302 302 304 305 307 306 306 306
318 313 315 311 310 305 307 314 316 317 315 313 311 309 307 305 302 300 298 297 298 299 299 299 299 298 298 298 298 298 297 298 298 299 299 300 300 302 303 305 305 304 305 304
311 308 309 309 301 302 303 305 310 310 309 306 306 305 304 301 299 298 298 296 296 296 296 296 296 295 295 295 295 296 297 296 296 297 297 300 301 301 303 304 303 302 305 304
303 306 306 303 301 300 298 300 301 301 299 298 297 298 297 297 296 297 297 297 296 296 295 294 294 294 294 294 294 294 295 295 296 297 296 299 301 301 300 300 302 300 305 304
299 305 310 303 299 298 296 297 297 297 297 297 298 297 298 298 298 297 296 296 295 293 292 294 294 293 293 294 294 294 294 295 296 295 295 297 299 300 301 299 298 303 302 303

GFSCGP_850_thetae_141.txt.gz
Theta_e
311 318 322 322 321 320 323 323 323 323 322 321 321 322 322 322 322 321 321 321 320 320 320 325 333 340 354 356 355 356 356 355 354 353 353 353 351 351 350 347 349 348 347 346
311 313 317 319 321 321 322 324 325 324 323 321 322 322 322 323 322 322 321 322 321 321 321 324 331 343 349 356 354 356 356 356 355 352 352 352 352 350 348 348 347 347 347 347
313 311 313 317 321 322 322 323 324 324 322 323 322 323 323 323 322 322 321 321 321 321 322 324 337 347 350 353 354 353 354 355 353 351 351 353 351 349 350 349 345 346 349 348
315 313 314 314 317 320 323 322 323 323 323 322 322 324 324 324 323 323 322 322 322 322 322 328 337 348 352 353 352 352 353 354 353 352 352 350 350 348 348 347 347 348 346 345
316 315 315 315 315 318 321 321 322 324 324 323 323 323 326 324 324 323 323 322 322 322 322 326 330 337 346 353 352 351 352 350 353 352 350 350 348 349 348 348 344 345 339 335
312 314 314 316 315 317 319 321 322 323 324 324 325 323 325 326 325 324 323 322 322 322 322 322 324 331 340 346 352 350 349 350 349 349 350 349 349 347 346 346 343 341 340 335
311 311 315 316 317 316 318 322 323 323 323 325 325 324 326 326 325 324 324 322 321 322 322 323 328 338 342 343 345 348 347 346 346 347 349 348 346 346 344 341 340 337 334 331
315 311 314 316 317 317 320 323 325 325 325 324 324 324 324 328 327 324 322 323 325 326 325 324 332 336 339 342 343 345 346 344 343 343 344 344 340 339 336 334 332 330 328 325
318 312 314 316 319 318 319 322 324 322 322 323 325 328 333 331 331 332 331 330 329 328 330 335 336 336 339 340 340 341 340 339 338 337 335 334 332 331 328 326 326 325 324 321
319 314 313 317 318 320 321 322 324 323 324 324 325 329 331 332 333 332 331 329 331 332 332 333 335 337 337 337 336 335 335 334 334 332 330 328 327 326 325 323 321 319 316 314
318 320 316 315 317 321 320 321 323 323 323 326 326 328 329 331 331 330 328 327 328 331 331 332 333 333 333 333 333 332 331 329 327 326 325 323 322 321 319 318 315 313 313 312
316 321 317 317 319 318 318 321 323 324 326 325 326 337 329 331 330 328 328 329 329 329 330 330 330 330 329 328 327 326 325 324 323 322 321 320 319 318 318 316 313 311 310 311
317 321 323 321 319 319 321 321 321 325 327 327 328 339 332 329 328 327 327 327 328 327 327 326 326 326 325 324 323 322 321 320 320 320 319 319 318 317 313 310 309 309 310 314
316 320 322 324 321 322 323 321 322 324 327 325 329 334 330 327 326 325 324 323 323 323 323 323 323 322 321 320 319 318 318 317 317 317 317 316 314 312 311 310 310 311 313 314
315 323 319 321 320 319 320 323 322 324 324 327 334 332 328 324 323 322 321 321 321 321 321 321 320 319 318 317 316 315 315 315 315 314 314 313 313 313 313 312 313 313 314 315
317 326 321 319 321 324 322 322 321 322 324 325 330 332 325 321 320 320 320 321 321 320 320 319 318 316 315 314 314 313 312 312 312 311 311 311 311 312 312 312 313 314 314 314
320 324 322 325 325 321 325 322 322 323 323 325 332 326 322 321 320 320 320 320 320 319 318 317 315 314 313 312 312 311 310 310 310 310 310 310 310 311 311 312 312 313 313 312
318 323 325 326 326 328 322 323 322 323 330 329 324 322 321 320 320 320 321 319 318 317 315 313 312 311 311 310 310 309 309 309 309 309 309 309 309 310 310 311 311 312 311 311
317 327 328 327 326 325 324 323 323 324 329 324 322 319 318 318 318 317 317 317 315 314 312 311 310 309 309 308 308 309 308 309 308 308 308 308 308 308 309 309 309 309 310 311
325 326 327 326 330 331 320 322 322 324 329 321 319 318 317 317 320 315 313 311 309 307 306 307 308 307 307 307 308 308 308 308 307 307 306 307 307 307 307 308 308 309 310 311
322 320 329 329 329 319 312 315 322 328 330 321 319 317 318 323 315 310 309 307 305 304 303 303 304 304 304 304 306 306 306 305 305 306 306 306 306 306 307 307 308 308 310 310
315 321 320 328 325 326 308 322 326 325 325 322 319 319 313 310 308 307 305 304 304 304 303 302 301 302 302 303 305 305 304 304 304 305 305 305 305 306 306 307 307 308 308 308
316 313 314 308 308 305 307 316 321 322 319 318 318 312 311 310 308 306 304 303 302 302 301 302 302 301 301 301 302 302 301 302 302 302 302 302 303 304 305 306 306 307 306 307
306 305 309 309 301 302 305 308 313 314 314 314 314 312 309 307 305 303 301 299 299 300 300 301 301 300 299 299 299 298 298 300 301 301 301 300 301 303 304 304 305 304 302 303
301 303 305 302 301 302 300 302 303 303 306 308 307 307 306 304 303 302 301 301 301 301 299 298 298 298 298 298 298 297 297 298 298 299 299 298 299 301 302 302 303 301 302 303
298 302 307 302 298 298 297 299 299 299 299 299 300 300 300 301 301 301 301 300 299 298 297 296 296 297 297 298 297 296 295 297 296 297 296 296 297 300 301 300 301 300 300 302

GFSCGP_850_thetae_147.txt.gz
Theta_e
312 312 310 310 312 315 320 319 319 320 320 321 321 320 318 318 319 318 320 321 320 320 320 320 320 321 349 350 351 345 340 338 349 349 349 351 348 349 348 349 351 350 349 347
308 312 311 311 312 314 318 320 319 321 322 320 319 320 319 319 318 319 319 321 320 320 319 321 320 322 348 354 351 350 340 339 350 350 347 347 349 349 348 349 350 348 346 348
309 311 311 310 311 314 315 319 319 320 321 321 320 320 320 320 319 321 320 321 321 320 320 321 321 328 346 349 351 347 336 341 339 349 350 349 347 347 347 349 349 350 348 346
310 311 312 312 310 313 316 318 321 321 320 320 321 321 320 320 319 319 320 320 321 321 320 320 320 338 348 348 351 352 345 337 348 347 349 349 349 347 348 348 348 348 346 346
313 313 313 312 311 311 314 317 320 321 321 322 321 319 321 319 320 320 319 320 321 321 321 321 326 335 341 345 348 349 336 343 348 348 348 350 348 348 348 347 347 346 344 343
313 312 312 314 314 312 314 316 319 320 321 324 324 319 318 320 320 320 319 321 322 322 322 321 332 340 344 347 346 345 330 344 348 349 347 349 348 347 347 346 344 342 344 341
314 313 311 314 314 315 312 314 320 322 323 329 325 323 319 321 320 320 320 322 323 322 322 335 337 346 349 347 345 337 346 346 347 347 348 347 346 346 345 342 342 341 339 336
319 316 312 312 313 315 311 312 324 327 324 325 324 327 321 321 322 322 322 322 323 323 322 335 344 347 348 345 342 341 344 348 347 347 347 346 345 344 343 342 341 340 338 332
318 315 312 312 314 315 316 313 317 322 321 324 325 325 328 324 324 320 321 322 323 323 324 338 346 348 348 344 343 344 346 346 347 345 343 343 340 341 340 342 340 338 335 327
315 318 314 312 314 315 316 315 317 323 327 328 326 325 326 328 327 321 320 319 328 338 341 346 346 345 343 343 343 343 344 342 340 340 339 340 339 338 337 336 335 332 326 319
316 317 315 312 315 317 317 318 319 320 323 323 328 326 328 334 322 326 331 335 339 340 339 341 342 341 341 342 342 339 339 338 338 338 337 337 335 333 333 328 323 318 315 314
315 319 318 312 316 316 316 317 319 322 324 325 328 329 330 332 332 332 331 337 338 337 336 338 340 340 339 336 335 334 334 332 331 330 330 328 324 322 320 316 314 312 311 312
314 319 317 315 318 318 319 318 320 321 323 325 329 332 331 330 331 333 336 336 336 335 334 334 334 332 331 331 330 329 328 327 324 323 322 319 317 315 313 312 311 311 312 314
314 317 320 317 317 319 321 321 319 321 326 329 330 336 332 328 328 329 332 333 333 333 330 329 327 328 328 326 325 324 323 322 321 320 318 315 313 311 311 311 311 312 315 315
316 318 318 319 321 318 320 320 321 322 324 327 330 332 330 328 328 328 330 330 328 326 326 324 323 323 323 322 321 321 320 320 319 315 314 313 313 313 311 312 314 315 315 315
315 319 319 320 320 321 319 319 320 320 322 330 330 332 329 327 328 329 327 325 324 322 320 319 319 319 318 318 317 316 316 316 314 314 314 313 313 312 313 314 315 314 312 312
314 319 322 322 321 322 321 320 319 323 328 328 331 329 326 325 325 324 323 321 320 319 317 316 316 316 316 315 315 314 313 312 312 312 312 312 312 312 313 314 313 312 312 311
317 320 320 322 322 319 322 320 325 327 328 327 326 326 324 323 322 321 320 318 316 315 315 315 314 314 313 313 312 312 312 311 311 311 311 311 311 312 312 312 310 311 312 312
318 319 323 319 322 322 319 317 321 325 327 324 325 323 322 321 318 318 316 315 314 314 313 313 313 312 311 311 311 311 310 310 310 309 310 310 310 309 309 309 309 310 311 311
316 317 320 322 322 323 317 311 311 314 329 323 322 322 320 318 316 314 313 314 313 313 312 312 311 311 311 311 311 310 309 308 308 309 309 308 308 308 308 308 308 309 311 310
311 310 319 321 322 318 307 306 309 324 325 322 321 320 317 314 312 311 311 310 311 311 311 310 310 310 309 310 309 308 308 308 308 307 307 307 308 308 307 307 308 308 309 309
307 310 308 314 319 318 304 309 324 321 321 320 317 314 311 309 308 307 309 309 309 309 308 307 308 307 307 307 307 306 306 306 306 307 306 306 306 307 306 307 307 308 308 308
308 305 305 305 304 301 301 304 318 317 316 314 311 310 309 307 307 307 306 306 306 306 305 305 306 306 305 304 304 304 303 304 303 303 303 304 304 305 306 306 307 307 306 306
300 300 305 306 303 301 302 311 314 314 312 312 311 309 308 306 306 305 305 305 304 304 303 303 302 302 301 302 302 302 302 302 302 302 301 302 303 304 305 306 305 305 305 304
299 299 301 302 300 302 302 304 312 311 311 308 306 304 304 305 305 304 304 303 303 302 302 301 300 300 299 299 299 300 300 300 300 300 300 300 301 302 302 304 304 303 303 302
297 299 301 300 298 299 299 301 305 306 306 305 305 304 304 304 303 303 302 302 301 301 300 300 299 298 298 297 296 295 297 298 299 299 298 298 299 300 301 301 301 300 300 298

GFSCGP_850_thetae_150.txt.gz
Theta_e
311 310 309 307 308 310 311 314 319 318 317 317 318 318 317 316 317 315 317 319 320 320 322 320 320 320 338 350 348 347 341 339 343 351 347 345 351 350 349 350 348 349 350 349
309 309 309 309 309 310 311 312 314 317 318 317 318 317 319 315 315 317 316 319 320 320 320 320 320 323 332 344 349 346 341 343 346 347 336 346 351 349 348 348 349 349 347 348
310 309 309 309 310 311 311 313 314 317 318 319 318 318 317 318 318 319 319 319 320 321 321 321 320 323 335 347 348 346 345 343 345 342 341 350 347 347 347 345 347 347 347 345
312 310 310 309 311 310 311 312 314 316 319 319 319 321 316 318 317 316 317 317 320 320 320 320 319 324 334 345 349 348 344 337 338 342 346 346 347 347 345 347 344 346 345 343
313 312 309 311 312 310 310 310 313 314 318 318 320 319 319 317 318 318 314 317 318 320 320 320 319 325 336 343 345 342 342 337 341 342 349 344 344 343 342 344 344 342 341 338
313 312 312 312 312 312 310 310 311 315 316 322 321 318 317 317 319 318 316 318 319 319 320 320 320 338 350 346 346 347 343 342 337 339 335 336 343 339 337 344 343 342 341 340
315 314 313 312 313 313 313 311 319 321 322 327 321 324 317 318 319 317 316 318 320 320 320 320 331 347 347 346 346 345 343 342 346 347 347 346 345 343 343 341 340 340 339 341
316 318 315 312 313 312 312 315 321 328 328 323 323 325 323 317 319 319 320 321 321 320 320 324 332 346 345 344 344 337 342 346 346 345 344 344 343 342 340 339 338 339 339 336
317 319 315 311 312 312 314 314 314 320 319 323 323 323 322 318 317 317 317 319 320 319 331 335 348 347 344 345 340 335 342 345 344 344 343 342 341 340 335 339 339 338 336 331
315 319 315 311 313 313 311 313 316 318 327 328 324 324 322 319 318 318 315 317 333 342 347 347 347 345 344 342 335 334 342 343 342 340 341 340 339 336 337 338 337 334 332 322
315 316 313 312 315 315 316 318 318 317 322 326 325 323 331 328 318 316 329 336 340 340 341 342 343 343 342 343 343 343 343 341 339 339 340 337 336 335 335 334 331 327 320 316
313 318 316 312 313 315 314 316 317 320 322 325 323 331 328 328 325 335 336 337 337 338 338 338 340 342 342 341 340 340 337 336 335 334 333 332 330 329 329 325 320 317 314 313
314 318 314 316 316 316 317 316 317 321 321 326 327 333 329 331 336 335 334 334 333 333 334 334 335 334 336 335 334 332 333 332 330 330 329 322 321 318 316 315 313 312 311 311
314 316 317 315 319 317 318 317 318 323 323 326 331 334 333 335 337 335 334 333 331 329 328 328 329 330 330 329 329 329 328 328 324 321 319 317 314 312 311 311 311 311 312 313
316 317 316 317 318 319 317 317 321 322 324 326 331 333 331 330 332 332 330 328 327 325 324 323 322 323 324 324 324 323 322 321 319 316 313 312 312 312 311 311 312 314 314 314
315 318 317 318 320 318 319 319 320 322 323 322 330 333 328 328 327 327 326 324 321 318 317 318 320 321 321 320 319 319 318 315 314 313 313 313 312 312 313 313 314 313 311 311
314 318 319 315 319 320 320 322 320 322 324 326 331 330 327 326 324 322 320 318 316 315 315 316 317 317 317 316 316 315 314 313 313 313 313 312 312 312 313 314 312 311 311 311
316 317 318 318 316 314 321 316 321 320 324 326 326 326 324 321 319 317 315 314 313 313 313 314 314 314 314 314 313 313 312 312 312 312 312 311 312 312 312 311 311 311 311 311
316 319 320 316 319 322 320 314 316 320 329 326 324 323 318 315 314 313 313 313 313 313 313 312 313 312 312 312 312 311 311 311 311 310 310 310 310 310 309 309 310 310 310 310
310 314 321 317 320 322 315 309 308 312 328 324 321 318 316 319 315 312 310 311 312 312 312 312 312 311 311 311 311 311 310 309 309 309 309 308 308 308 308 308 309 309 309 309
307 307 313 320 320 316 307 305 307 324 325 322 319 318 317 315 312 309 309 310 311 311 311 312 312 311 310 310 310 310 308 308 308 308 307 308 308 307 307 307 308 308 308 308
304 306 306 309 317 318 304 308 321 319 321 319 314 311 309 309 308 309 310 310 311 311 311 312 311 310 310 310 309 308 308 307 307 307 307 307 308 307 307 307 307 307 308 307
305 302 304 304 305 302 301 302 306 316 314 311 310 308 308 306 306 307 307 308 308 309 310 310 310 308 307 306 306 306 305 305 305 305 305 305 305 305 306 306 306 306 306 305
299 299 303 306 302 300 303 310 311 310 309 308 307 307 307 306 306 306 306 306 307 307 307 307 307 306 304 303 303 304 303 303 303 303 303 303 304 305 305 305 305 305 304 304
298 298 300 301 300 302 303 307 306 306 307 306 305 305 305 305 304 304 304 304 304 304 303 303 302 301 300 300 302 302 302 301 301 301 301 302 303 303 303 304 304 303 303 302
297 298 299 299 297 299 299 305 307 307 305 305 305 304 304 304 304 305 304 303 302 301 300 299 299 298 297 295 296 297 298 299 300 301 299 299 300 301 302 302 302 301 300 299